Regional Weather Roundup
Issued by NWS Charleston, SC

Current Version | Previous Version | Graphics & Text | Print | Product List | Glossary On
Versions: 1 2 3 4 5 6 7 8 9 10 11 12 13 14 15 16 17 18 19 20 21 22 23 24 25 26 27 28 29 30 31 32 33 34 35 36 37 38 39 40 41 42 43 44 45 46 47 48 49 50
000 ASUS42 KCHS 160327 RWRCHS Regional Weather Roundup National Weather Service Charleston SC 1000 PM EST FRI DEC 15 2017 NOTE: "fair" indicates few or no clouds below 12,000 feet with no significant weather and/or obstructions to visibility. Not all stations are quality controlled. Use data with caution, especially dewpoint observations. SCZ027-030-031-034>040-042>050-160400- ...Southeast South Carolina... CITY SKY/WX TMP DP RH WIND PRES REMARKS N Charleston CLOUDY 53 36 52 W12 30.10R Waterfront Prk N/A 55 39 54 W8 29.95R Mount Pleasant FAIR 54 37 54 NW9 30.11R Johns Island FAIR 54 37 54 W14G21 30.11R Pinopolis N/A 52 43 71 W9G16 30.02R Moncks Corner FAIR 50 32 50 NW3 30.11R Summerville FAIR 50 32 50 W8 30.13R Beaufort MCAS CLOUDY 53 35 50 NW13G21 30.12R Beaufort Arpt FAIR 52 36 54 NW9 30.13R Hilton Head Is CLOUDY 54 36 50 VRB12G20 30.14R Walterboro CLOUDY 50 32 50 W8 30.14R Allendale FAIR 46 28 49 CALM 30.14S ...Southern Midlands and Pee Dee... CITY SKY/WX TMP DP RH WIND PRES REMARKS Georgetown FAIR 52 37 58 W7 30.10R Kingstree FAIR 46 34 61 CALM 30.10S Orangeburg PTCLDY 47 27 45 NW10 30.13R Barnwell N/A 46 28 49 W5G12 30.15R Aiken FAIR 36 27 69 W5 30.16R WCI 32 Manning FAIR 50 21 32 MISG 30.12R Columbia PTCLDY 42 30 62 W8 30.12R Sumter MOCLDY 46 31 56 NW3 30.08R Florence CLOUDY 44 32 62 NW3 30.09R Myrtle Beach MOCLDY 51 35 54 NW9 30.09R N Myrtle Beach MOCLDY 50 34 54 N6 30.07R $$ GAZ063-065-086>088-099>101-113>116-118-119-134>141-150-160400- ...Southeast Georgia... CITY SKY/WX TMP DP RH WIND PRES REMARKS Savannah Arpt CLOUDY 52 35 52 W10 30.15R Hunter AAF N/A 53 37 55 W12 30.11R Fort Stewart N/A 52 34 50 NW13 N/A Statesboro CLOUDY 48 24 39 NW9 30.16R Sylvania CLOUDY 48 32 54 NW10 30.17R Claxton FAIR 50 32 49 W13 30.17R ...CSRA, Central and far Southeast Georgia... CITY SKY/WX TMP DP RH WIND PRES REMARKS Thomson PTCLDY 38 24 55 N6 30.21R WCI 34 Augusta-Bush CLOUDY 43 25 49 NW8 30.15R Augusta-Daniel CLOUDY 42 25 50 W8 30.15R Swainsboro FAIR 43 28 56 NW9 30.18F Vidalia CLOUDY 46 32 57 NW7 30.17F Eastman FAIR 45 17 33 NW5 30.23R Hazlehurst FAIR 48 24 38 NW5 30.18R Alma CLOUDY 50 33 52 NW9 30.16R Waycross CLOUDY 52 36 54 N7 30.17S Jesup NOT AVBL Baxley FAIR 46 32 57 NW6 30.17S Brunswick CLOUDY 54 41 62 W6 30.16R Saint Simons CLOUDY 55 42 61 W9 30.14R $$ SCZ027-028-034-036>038-045-046-048>050-GAZ119-141-160400- ...Lake and Supplemental Coastal Observations... STATION/POSITION TIME TEMP WIND PRES WAVE SWELL AIR SEA DIR/SP/G HT/PER HT/PER/DIR (UTC) (F) (DEG/KT/KT) (MB) (FT/S) (FT/S/D) Winyah Bay 0245 54 270/ 6 1018.0R Lake Murray 0250 44 280/ 8/ 12 1019.3R ACE Basin NERRS 0245 53 280/ 3 1019.0S Fort Pulaski 0300 53 53 300/ 12/ 15 1020.5 Sapelo Island 0300 54 290/ 7 1021.0 $$ ANZ835-935-AMZ111-154-330-350-352-354-370-450-454-472-160400- ...C-MAN and Buoy Observations... STATION/POSITION TIME TEMP WIND PRES WAVE SWELL AIR SEA DIR/SP/G HT/PER HT/PER/DIR (UTC) (F) (DEG/KT/KT) (MB) (FT/S) (FT/S/D) Buoy 41004 0310 60 72 280/ 21/ 27 1018.5 Buoy 41008 0250 56 58 270/ 17/ 21 1020.3R 2/ 3 Folly Beach CMAN 0300 53 280/ 6/ 8 1019.8R Capers Nearshore 0308 52 56 300/ 14/ 19 1018.9R STATION/POSITION TIME TEMP WIND PRES WAVE SWELL AIR SEA DIR/SP/G HT/PER HT/PER/DIR (UTC) (F) (DEG/KT/KT) (MB) (FT/S) (FT/S/D) 5E St. Marys GA 0300 62 N/A 2/ 3 Frying Pan Buoy 0310 60 68 290/ 21/ 29 1017.8 Buoy 41025 0310 49 73 320/ 25/ 31 1016.9 Cape Lookout NC 0300 340/ 16/ 19 1017.8R Buoy 41002 0250 69 75 280/ 27/ 33 1015.3S 8/ 7 2/130/11 Buoy 41010 NOT AVBL St Augustine FL 0300 61 64 320/ 8/ 11 1021.3R $$

USA.gov is the U.S. government's official web portal to all federal, state and local government web resources and services.